Flag for Brazil Weather past 2 weeks in Belo Horizonte, Minas Gerais, Brazil

Now
72 °F

Clear.


Feels Like: 72 °F
Forecast: 68 / 85 °F
Wind: 3 mph from Southeast

Location: Belo Horizonte Airport

Current Time: Apr 19, 2015 at 1:38:16 AM

Latest Report: Apr 19, 2015 at 12:00 AM


Visibility: 10 mi

Pressure: 30.07 "Hg

Humidity: 78%

Dew point: 64 °F

Location of Belo HorizonteLocation

Historic Weather in Belo Horizonte — Graph

°F

Belo Horizonte temperature yesterday

Maximum temperature yesterday: 82 °F (at 1:00 PM)
Minimum temperature yesterday: 68 °F (at 4:00 AM)
Average temperature yesterday: 75 °F

Past Weeks' High & Low Weather Summary

 TemperatureHumidityPressure
High82 °F (Apr 6, 2:00 PM)94% (Apr 5, 7:00 AM)30.21 "Hg (Apr 5, 7:00 AM)
Low61 °F (Apr 10, 3:00 AM)30% (Apr 15, 2:00 PM)29.89 "Hg (Apr 6, 2:00 PM)
Average71 °F70%30.08 "Hg
* Reported Midnight between Apr 3 and Apr 4 — Midnight between Apr 18 and Apr 19, Belo Horizonte, Weather by CustomWeather, © 2015

Note: Actual official high and low records may vary slightly from our data, if they occured in-between our weather recording intervals... More about our weather records

Advertising

Belo Horizonte weather history for previous 24 hours

 ConditionsComfort  
Time TempWeatherWind HumidityBarometerVisibility
12:00 AM
Sun, Apr 19
72 °FClear.3 mph78%30.07 "Hg10 mi
11:00 PM
Sat, Apr 18
72 °FClear.2 mph78%30.07 "Hg10 mi
10:00 PM72 °FClear.3 mph78%30.07 "Hg10 mi
9:00 PM73 °FClear.3 mph74%30.09 "Hg10 mi
8:00 PM75 °FPassing clouds.6 mph69%30.07 "HgN/A
7:00 PM77 °FPassing clouds.9 mph65%30.04 "HgN/A
6:00 PM79 °FPassing clouds.8 mph58%30.04 "HgN/A
5:00 PM81 °FScattered clouds.2 mph54%30.01 "HgN/A
4:00 PM82 °FPartly sunny.2 mph48%30.01 "HgN/A
3:00 PM82 °FPartly sunny.No wind45%30.04 "HgN/A
2:00 PM82 °FPartly sunny.3 mph48%30.04 "HgN/A
1:00 PM82 °FPartly sunny.5 mph48%30.07 "HgN/A
12:00 PM79 °FPartly sunny.2 mph58%30.09 "HgN/A
11:00 AM79 °FPartly sunny.9 mph54%30.12 "HgN/A
10:00 AM77 °FScattered clouds.9 mph61%30.15 "HgN/A
9:00 AM75 °FSunny.8 mph69%30.15 "Hg10 mi
8:00 AM72 °FSunny.8 mph78%30.12 "Hg10 mi
7:00 AM70 °FSunny.7 mph78%30.09 "Hg10 mi
6:00 AM68 °FClear.3 mph83%30.09 "Hg10 mi
5:00 AM68 °FClear.7 mph83%30.07 "Hg10 mi
4:00 AM68 °FClear.6 mph83%30.07 "Hg10 mi
3:00 AM70 °FClear.8 mph78%30.07 "Hg10 mi
2:00 AM70 °FClear.9 mph78%30.07 "Hg10 mi
1:00 AM72 °FClear.10 mph73%30.07 "Hg10 mi
Weather by CustomWeather, © 2015

See weather overviewHow to use our weather pages